EW2997 Weather Reports


time (UTC)temp
F
wind
direction
speed
knots
gust
knots
rain 1hr
in
rain 24hr
in
rain mn
in
humidity
%
barometer
mb
20240614124059 72 306 0.9 0.9 0.00 0.00 0.00 73 1017.4
20240614121058 71 198 0.0 0.0 0.00 0.00 0.00 74 1017.4
20240614114058 66 228 0.0 0.0 0.00 0.00 0.00 88 1017.0
20240614111057 59 210 0.0 0.0 0.00 0.00 0.00 94 1017.0
20240614104056 58 150 0.0 0.0 0.00 0.00 0.00 95 1016.7
20240614101055 58 132 0.0 0.0 0.00 0.00 0.00 96 1016.7
20240614094054 57 204 0.0 0.0 0.00 0.00 0.00 96 1016.3
20240614091054 58 150 0.0 0.0 0.00 0.00 0.00 96 1016.3
20240614084054 58 156 0.0 0.0 0.00 0.00 0.00 95 1016.7
20240614081052 59 162 0.0 0.0 0.00 0.00 0.00 95 1016.7
20240614074051 60 138 0.0 0.0 0.00 0.00 0.00 94 1016.7
20240614071050 60 273 0.0 0.0 0.00 0.00 0.00 94 1016.7
20240614064048 61 156 0.0 0.0 0.00 0.00 0.00 93 1017.0
20240614061046 61 174 0.0 0.0 0.00 0.00 0.00 94 1017.0
20240614054044 63 144 0.0 0.0 0.00 0.00 0.00 94 1017.0
20240614051044 63 108 0.0 0.0 0.00 0.00 0.00 94 1017.0
20240614044043 65 177 0.0 0.0 0.00 0.00 0.00 92 1017.4
20240614041043 67 192 0.0 0.0 0.00 0.00 0.00 89 1017.4
20240614034043 67 108 0.0 0.0 0.00 0.00 0.00 89 1017.4
20240614031042 68 198 0.0 0.0 0.00 0.00 0.00 86 1017.7
20240614024040 70 168 0.0 0.0 0.00 0.00 0.00 83 1017.4
20240614021040 70 129 1.7 1.7 0.00 0.00 0.00 81 1017.7
20240614014040 71 162 0.0 0.0 0.00 0.00 0.00 80 1017.4
20240614011039 73 136 0.0 0.0 0.00 0.00 0.00 75 1017.0
20240614004038 76 148 0.0 0.0 0.00 0.00 0.00 71 1017.0
20240614001038 80 165 0.0 0.0 0.00 0.00 0.00 65 1017.0
20240613234036 83 197 0.0 0.0 0.00 0.00 0.00 54 1017.4
20240613231036 86 191 0.0 0.0 0.00 0.00 0.00 50 1017.4
20240613224035 86 198 1.7 1.7 0.00 0.00 0.00 51 1017.4
20240613221035 86 197 1.7 1.7 0.00 0.00 0.00 49 1017.4
20240613214035 86 282 1.7 1.7 0.00 0.00 0.00 49 1017.4
20240613211034 87 282 0.0 0.0 0.00 0.00 0.00 51 1017.4
20240613204032 86 162 2.6 2.6 0.00 0.00 0.00 48 1017.7
20240613201032 86 318 2.6 2.6 0.00 0.00 0.00 49 1017.7
20240613194031 85 312 2.6 2.6 0.00 0.00 0.00 48 1018.0
20240613191030 84 294 4.3 5.2 0.00 0.00 0.00 49 1018.4
20240613184029 83 270 2.6 3.5 0.00 0.00 0.00 52 1018.7
20240613181028 82 180 4.3 4.3 0.00 0.00 0.00 46 1019.0
20240613174027 82 330 3.5 3.5 0.00 0.00 0.00 47 1019.5
20240613171028 82 252 1.7 1.7 0.00 0.00 0.00 51 1019.5
20240613164027 80 197 1.7 1.7 0.00 0.00 0.00 56 1019.8
20240613161026 80 216 1.7 1.7 0.00 0.00 0.00 62 1020.2
20240613154026 78 222 2.6 2.6 0.00 0.00 0.00 67 1019.8
20240613151026 77 303 4.3 4.3 0.00 0.00 0.00 66 1020.2
20240613144025 75 236 1.7 1.7 0.00 0.00 0.00 66 1020.2
20240613141026 75 234 1.7 1.7 0.00 0.00 0.00 63 1020.5
20240613134024 74 222 1.7 1.7 0.00 0.00 0.00 63 1020.8
20240613131023 70 178 1.7 1.7 0.00 0.00 0.00 67 1021.2